[[{"header":{"parameterUnit":"m.s-1","parameterCategory":1,"la1":30.2991,"la2":30.254,"lo1":-89.0895,"lo2":-89.0444,"dy":0.0017,"dx":0.0017,"nx":28,"ny":28,"refTime":"2024-03-09T03:00:00:Z","depth":0,"parameterNumber":2,"parameterNumberName":"U-component_of_WINDS"},"data":[0,0,0,0,0,0,0,0,0,0,0,0,0,0,0,0,0,0,0,0,0,0,0,0,0,0,0,0,0,0,0,0,0,0,0,0,0,0,0,0,0,0,0,0,0,0,0,0,0,0,0,0,0,0,0,0,0,0,-3.539,-3.5393,0,-3.5652,-3.5655,-3.5658,-3.5775,-3.5775,-3.5774,-3.5774,-3.6044,-3.6051,-3.6058,0,0,0,0,0,0,0,0,0,0,0,0,0,-3.4995,-3.5002,-3.539,-3.5393,-3.5397,-3.5651,-3.5655,-3.5658,-3.5775,-3.5775,-3.5774,-3.5774,-3.6041,-3.605,-3.6059,0,0,0,0,0,0,0,0,0,0,0,0,0,-3.5202,-3.5004,-3.539,-3.5486,-3.5497,-3.565,-3.5655,-3.5659,-3.5775,-3.5775,-3.5774,-3.5774,-3.6038,-3.6049,-3.606,-3.6139,0,0,-3.6095,-3.6099,0,0,0,0,0,0,0,0,-3.519,-3.5217,-3.5468,-3.5479,-3.5492,-3.568,-3.5614,-3.582,-3.5775,-3.567,-3.5774,-3.5774,-3.5923,-3.5944,-3.5994,-3.6151,-3.6163,-3.6096,-3.6102,-3.6107,-3.611,0,0,0,0,0,0,0,-3.5176,-3.5206,-3.5494,-3.5472,-3.5486,-3.5517,-3.5545,-3.5654,-3.5796,-3.5679,-3.5688,-3.5717,-3.593,-3.5983,-3.6001,-3.6167,-3.6095,-3.6105,-3.6112,-3.6117,-3.6403,-3.6404,0,0,0,0,0,0,-3.5146,-3.5193,-3.5486,-3.5502,-3.5337,-3.5524,-3.5556,-3.562,-3.5795,-3.5821,-3.5717,-3.5722,-3.5964,-3.5988,-3.6011,-3.6116,-3.6107,-3.6118,-3.6124,-3.6402,-3.6403,-3.6404,0,0,0,0,0,0,-3.5137,-3.517,-3.5475,-3.535,-3.5391,-3.5531,-3.5602,-3.5626,-3.5679,-3.5824,-3.585,-3.5745,-3.5965,-3.5995,-3.6106,-3.6126,-3.6123,-3.6133,-3.6401,-3.6403,-3.6404,-3.6323,0,0,0,0,0,0,-3.5125,-3.5167,-3.5197,-3.535,-3.5397,-3.5564,-3.5603,-3.5631,-3.5698,-3.5706,-3.5857,-3.5882,-3.5967,-3.6089,-3.6117,-3.6142,-3.6142,-3.64,-3.6402,-3.6404,-3.6325,-3.6322,-3.6319,0,0,0,0,0,-3.511,-3.5164,-3.5198,-3.5233,-3.5438,-3.5565,-3.5593,-3.5688,-3.5699,-3.5731,-3.5825,-3.5877,-3.6119,-3.6099,-3.6132,-3.616,-3.6399,-3.6401,-3.6403,-3.6326,-3.6323,-3.6319,0,0,0,0,0,0,-3.5011,-3.5186,-3.5225,-3.533,-3.5432,-3.5585,-3.5629,-3.5681,-3.5783,-3.5786,-3.5901,-3.5934,-3.6035,-3.6109,-3.6084,-3.6246,-3.6264,-3.6273,-3.6194,-3.6192,-3.6189,-3.6169,-3.6151,0,0,0,0,0,-3.5001,-3.5088,-3.5237,-3.5316,-3.5365,-3.5487,-3.5546,-3.5611,-3.5722,-3.5765,-3.5867,-3.5973,-3.6073,-3.6137,-3.6237,-3.6336,-3.6372,-3.6372,-3.6369,-3.6366,-3.6372,-3.6432,-3.6434,-3.6411,-3.6411,-3.6411,0,0,-3.4981,-3.5088,-3.5137,-3.5298,-3.5385,-3.5474,-3.5523,-3.5615,-3.5683,-3.578,-3.5891,-3.5969,-3.6095,-3.62,-3.6252,-3.6265,-3.6386,-3.6368,-3.6365,-3.6373,-3.6434,-3.6436,-3.6438,-3.6412,-3.6412,-3.6412,0,0,-3.4992,-3.5081,-3.5156,-3.5242,-3.5372,-3.5454,-3.5471,-3.5617,-3.5673,-3.5785,-3.586,-3.5943,-3.6113,-3.62,-3.6266,-3.631,-3.6363,-3.6339,-3.6325,-3.6381,-3.6383,-3.6385,-3.6402,-3.6406,-3.6345,-3.6345,-3.6345,0,-3.4952,-3.5089,-3.5189,-3.5277,-3.5346,-3.5438,-3.5516,-3.5594,-3.575,-3.5796,-3.5808,-3.6024,-3.6115,-3.6243,-3.6253,-3.6304,-3.6329,-3.6323,-3.6374,-3.6378,-3.6381,-3.6398,-3.6404,-3.6341,-3.6342,-3.6342,-3.6342,0,-3.5033,-3.5127,-3.5172,-3.532,-3.5395,-3.5477,-3.5591,-3.5654,-3.5713,-3.5793,-3.5908,-3.602,-3.6145,-3.618,-3.6238,-3.6317,-3.6321,-3.6352,-3.6373,-3.6378,-3.6396,-3.6403,-3.6336,-3.6337,-3.6338,-3.6339,0,0,-3.4989,-3.5191,-3.5206,-3.5275,-3.5425,-3.55,-3.5587,-3.5708,-3.5761,-3.5866,-3.5943,-3.6084,-3.6115,-3.619,-3.6259,-3.6308,-3.6337,-3.6334,-3.6339,-3.6331,-3.6431,-3.6407,-3.6413,-3.6372,-3.6374,-3.6375,-3.6421,0,-3.502,-3.518,-3.5272,-3.5394,-3.5482,-3.557,-3.5647,-3.5747,-3.5825,-3.5912,-3.5999,-3.6097,-3.6129,-3.6175,-3.6228,-3.6322,-3.6359,-3.632,-3.6446,-3.6449,-3.6412,-3.6422,-3.6397,-3.6435,-3.6429,-3.643,-3.6431,0,-3.5079,-3.5181,-3.5311,-3.5452,-3.5493,-3.5559,-3.5679,-3.576,-3.5877,-3.593,-3.6014,-3.6083,-3.618,-3.6192,-3.6327,-3.6299,-3.6356,-3.641,-3.6414,-3.643,-3.644,-3.6439,-3.6449,-3.6455,-3.6443,-3.6442,-3.6441,0,-3.5034,-3.5205,-3.5305,-3.5361,-3.5527,-3.5572,-3.5644,-3.576,-3.5827,-3.5932,-3.5977,-3.6092,-3.6154,-3.6242,-3.6341,-3.634,-3.6467,-3.6487,-3.6515,-3.6512,-3.6538,-3.6535,-3.6557,-3.6573,-3.6573,-3.6573,-3.6572,0,-3.5061,-3.5137,-3.5287,-3.5348,-3.5437,-3.5543,-3.5628,-3.5707,-3.581,-3.5889,-3.5972,-3.6045,-3.6171,-3.6259,-3.6337,-3.6438,-3.6466,-3.6512,-3.6532,-3.6505,-3.6499,-3.6545,-3.6545,-3.6574,-3.6574,-3.6574,-3.6573,0,-3.5026,-3.5129,-3.5244,-3.5392,-3.5432,-3.549,-3.5618,-3.5682,-3.5763,-3.5863,-3.5892,-3.6021,-3.613,-3.6237,-3.6383,-3.6436,-3.6536,-3.6562,-3.6496,-3.6507,-3.6529,-3.6525,-3.6582,-3.6595,-3.66,-3.66,-3.66,0,-3.5036,-3.5097,-3.5251,-3.531,-3.5379,-3.5473,-3.5542,-3.5649,-3.5718,-3.5856,-3.5903,-3.6018,-3.6115,-3.6285,-3.6393,-3.6505,-3.6536,-3.6548,-3.6553,-3.6524,-3.6537,-3.6532,-3.6539,-3.6544,-3.6544,-3.6543,-3.6543,0,-3.5043,-3.5092,-3.5187,-3.5301,-3.5381,-3.5476,-3.5574,-3.5618,-3.5744,-3.5817,-3.5929,-3.6004,-3.6154,-3.6267,-3.6392,-3.6468,-3.6527,-3.654,-3.6553,-3.6526,-3.6486,-3.6509,-3.6488,-3.6539,-3.6539,-3.6539,-3.654,-3.654,-3.5033,-3.5091,-3.5209,-3.5313,-3.5398,-3.5487,-3.5555,-3.5645,-3.5739,-3.5869,-3.5926,-3.6039,-3.6156,-3.633,-3.6405,-3.6495,-3.651,-3.6528,-3.6533,-3.6536,-3.653,-3.647,-3.6518,-3.6519,-3.6519,-3.6519,-3.6519,0,-3.5045,-3.5125,-3.522,-3.5354,-3.5436,-3.5483,-3.5595,-3.566,-3.5758,-3.5861,-3.5955,-3.6084,-3.6195,-3.6311,-3.6428,-3.6479,-3.6509,-3.6506,-3.6504,-3.652,-3.651,-3.6487,-3.648,-3.648,-3.648,-3.648,-3.648,-3.648,-3.5062,-3.5163,-3.5225,-3.5369,-3.545,-3.556,-3.5619,-3.5703,-3.5786,-3.5926,-3.6017,-3.6092,-3.6201,-3.6327,-3.6431,-3.6462,-3.6502,-3.6492,-3.6531,-3.6518,-3.6521,-3.6524,-3.6503,-3.6499,-3.6499,-3.6534,-3.6535,-3.6535]},{"header":{"parameterUnit":"m.s-1","parameterCategory":1,"la1":30.2991,"la2":30.254,"lo1":-89.0895,"lo2":-89.0444,"dy":0.0017,"dx":0.0017,"nx":28,"ny":28,"refTime":"2024-03-09T03:00:00:Z","depth":0,"parameterNumber":3,"parameterNumberName":"V-component_of_WINDS"},"data":[0,0,0,0,0,0,0,0,0,0,0,0,0,0,0,0,0,0,0,0,0,0,0,0,0,0,0,0,0,0,0,0,0,0,0,0,0,0,0,0,0,0,0,0,0,0,0,0,0,0,0,0,0,0,0,0,0,0,6.8641,6.8642,0,6.8683,6.8684,6.8684,6.8653,6.8652,6.8651,6.8649,6.869,6.8693,6.8695,0,0,0,0,0,0,0,0,0,0,0,0,0,6.8534,6.8536,6.8641,6.8642,6.8642,6.8683,6.8684,6.8684,6.8654,6.8652,6.865,6.8649,6.869,6.8692,6.8695,0,0,0,0,0,0,0,0,0,0,0,0,0,6.8578,6.8536,6.8641,6.8632,6.8631,6.8683,6.8684,6.8685,6.8654,6.8652,6.865,6.8648,6.8689,6.8692,6.8696,6.8758,0,0,6.8706,6.8708,0,0,0,0,0,0,0,0,6.8576,6.8582,6.8633,6.8632,6.8632,6.8661,6.8661,6.8709,6.8654,6.8645,6.8649,6.8647,6.8682,6.8686,6.8698,6.876,6.8762,6.8707,6.8709,6.871,6.8711,0,0,0,0,0,0,0,6.8573,6.858,6.8658,6.8633,6.8633,6.8626,6.863,6.867,6.8674,6.8646,6.8644,6.8649,6.8682,6.8695,6.8699,6.8762,6.8707,6.871,6.8712,6.8713,6.8882,6.8884,0,0,0,0,0,0,6.8571,6.8578,6.8656,6.8659,6.8599,6.8629,6.8634,6.8654,6.8674,6.8675,6.8651,6.8648,6.869,6.8695,6.87,6.8778,6.871,6.8714,6.8716,6.888,6.8883,6.8885,0,0,0,0,0,0,6.8569,6.8578,6.8655,6.8618,6.8627,6.8633,6.8656,6.8656,6.8669,6.8678,6.8678,6.8664,6.8689,6.8695,6.8745,6.8779,6.8715,6.8719,6.8877,6.8881,6.8884,6.8932,0,0,0,0,0,0,6.8566,6.8577,6.8601,6.8619,6.8629,6.8699,6.8658,6.8658,6.8676,6.8672,6.869,6.8691,6.8688,6.874,6.8749,6.8783,6.8721,6.8874,6.8879,6.8883,6.8928,6.8937,6.8945,0,0,0,0,0,6.8562,6.8611,6.8602,6.8612,6.8659,6.8701,6.8707,6.8702,6.8678,6.8703,6.8709,6.8691,6.8774,6.8746,6.8755,6.8791,6.8872,6.8877,6.8882,6.8924,6.8935,6.8945,0,0,0,0,0,0,6.8595,6.8613,6.8603,6.866,6.868,6.8695,6.8725,6.8713,6.8739,6.8734,6.8726,6.8731,6.8784,6.8792,6.876,6.8854,6.8819,6.8827,6.8847,6.8858,6.8867,6.8864,6.8724,0,0,0,0,0,6.861,6.8642,6.8656,6.8705,6.8715,6.8719,6.8737,6.8732,6.8751,6.8759,6.8768,6.8787,6.8818,6.8838,6.8867,6.8929,6.8934,6.8958,6.8967,6.8974,6.8981,6.9018,6.903,6.8903,6.8903,6.8903,0,0,6.8639,6.8653,6.8673,6.8712,6.8726,6.8761,6.8726,6.8763,6.8789,6.8764,6.8813,6.8821,6.8842,6.8899,6.8924,6.8907,6.9017,6.8981,6.8986,6.8989,6.9025,6.9037,6.9047,6.8906,6.8906,6.8905,0,0,6.8711,6.8723,6.8768,6.8784,6.8807,6.8809,6.882,6.8839,6.8844,6.8893,6.8876,6.8907,6.8959,6.8976,6.8991,6.9074,6.9059,6.9083,6.9129,6.9165,6.9175,6.9184,6.9216,6.9228,6.9089,6.909,6.909,0,6.8744,6.8796,6.8791,6.8832,6.885,6.8831,6.8877,6.8892,6.8923,6.8936,6.8916,6.8985,6.8997,6.906,6.908,6.9092,6.9106,6.9081,6.9174,6.9183,6.9191,6.9222,6.9234,6.9093,6.9092,6.9092,6.9092,0,6.8838,6.8874,6.8907,6.894,6.8962,6.9004,6.9007,6.903,6.9024,6.9029,6.9081,6.9096,6.9129,6.9143,6.9136,6.9206,6.9195,6.9175,6.914,6.9206,6.9235,6.9247,6.9097,6.9096,6.9095,6.9094,0,0,6.893,6.8963,6.8975,6.8992,6.9017,6.9046,6.9088,6.9122,6.9143,6.9165,6.9203,6.9249,6.9232,6.9249,6.9245,6.9276,6.9345,6.9252,6.9253,6.9271,6.9427,6.9444,6.9457,6.9335,6.9337,6.9339,6.9426,0,6.9006,6.9081,6.908,6.915,6.9186,6.917,6.9208,6.9228,6.9235,6.9266,6.9273,6.9307,6.928,6.9291,6.9322,6.933,6.9376,6.9323,6.9371,6.9373,6.9369,6.9472,6.9489,6.957,6.9437,6.9439,6.944,0,6.9103,6.9132,6.9207,6.9231,6.9246,6.928,6.9313,6.9343,6.9366,6.9369,6.9391,6.9382,6.9427,6.939,6.9453,6.9417,6.9437,6.9444,6.9447,6.9453,6.9412,6.9483,6.9596,6.9609,6.9457,6.9456,6.9455,0,6.9168,6.9225,6.9278,6.9292,6.932,6.9345,6.9358,6.938,6.9402,6.943,6.9445,6.9478,6.9496,6.9522,6.9523,6.9496,6.9588,6.955,6.9593,6.9594,6.9614,6.9614,6.9735,6.9623,6.9623,6.9623,6.9623,0,6.9253,6.93,6.9308,6.9341,6.9394,6.9392,6.9445,6.9455,6.9476,6.9511,6.9498,6.9531,6.953,6.9564,6.9565,6.9619,6.9627,6.9631,6.9632,6.9634,6.9634,6.9648,6.9643,6.9626,6.9625,6.9625,6.9624,0,6.9334,6.9341,6.9398,6.9422,6.9429,6.9468,6.9488,6.952,6.9526,6.9572,6.9582,6.9592,6.9633,6.9636,6.9682,6.9683,6.9749,6.9742,6.9742,6.9742,6.9786,6.9783,6.9922,6.9942,6.9815,6.9816,6.9817,0,6.939,6.9426,6.9455,6.9479,6.9494,6.9531,6.9555,6.9555,6.958,6.9612,6.964,6.968,6.9711,6.9776,6.9788,6.9824,6.9819,6.9865,6.9824,6.9827,6.9824,6.9823,6.9828,6.9874,6.9875,6.9876,6.9877,0,6.9488,6.9491,6.9525,6.9562,6.9591,6.9619,6.9646,6.9666,6.967,6.9698,6.974,6.9765,6.9814,6.9854,6.989,6.9904,6.9893,6.989,6.9903,6.9907,6.9907,6.9911,6.9767,6.9887,6.9886,6.9886,6.9885,6.9885,6.956,6.9594,6.9621,6.966,6.9681,6.9707,6.974,6.9752,6.9787,6.9828,6.9826,6.9873,6.9899,6.9946,6.9963,7.0,6.9985,7.0002,7.0007,7.0012,7.0018,6.9899,7.0006,7.0006,7.0006,7.0006,7.0005,0,6.9661,6.9679,6.9715,6.9755,6.9787,6.9774,6.9804,6.9832,6.9874,6.9899,6.9932,6.9982,7.0022,7.0038,7.0077,7.0104,7.01,7.0115,7.0114,7.0118,7.0028,7.0015,7.0118,7.0118,7.0118,7.0118,7.0117,7.0117,6.9718,6.9775,6.9781,6.9849,6.9866,6.9913,6.9932,6.9957,6.9978,7.0035,7.0069,7.0079,7.0101,7.0143,7.018,7.0183,7.02,7.0217,7.0219,7.0135,7.0124,7.0113,7.0101,7.022,7.022,7.0306,7.0307,7.0308]}]]